Weather History for Park Rapids, MN

Change the Weather History Date:

Monday, October 3, 2011

  Actual Average Record
Temperature  
Mean Temperature 64 °F -  
Max Temperature 81 °F 61 °F 88 °F (1953)
Min Temperature 46 °F 38 °F 20 °F (1989)
Degree Days  
Heating Degree Days 2    
Growing Degree Days 14 (Base 50)    
Moisture  
Dew Point 41 °F    
Average Humidity 48    
Maximum Humidity 80    
Minimum Humidity 23    
Precipitation  
Precipitation 0.00 in - - ()
Sea Level Pressure  
Sea Level Pressure 30.11 in    
Wind  
Wind Speed 7 mph (SSE)    
Max Wind Speed 17 mph    
Max Gust Speed -    
Visibility 10 miles    
Events      
Averages and records for this station are not official NWS values.
T = Trace of Precipitation, MM = Missing Value Source: NWS Daily Summary

Daily Weather History Graph

Daily Weather History Graph

Search for Another Location

Airport:

Trip Planner

Search our weather history database for the weather conditions in past years. The results will help you decide how hot, cold, wet, or windy it might be!

Date:

Astronomy

Oct. 03, 2011 Rise Set
Actual Time 7:21 AM CDT 6:56 PM CDT
Civil Twilight 6:51 AM CDT 7:26 PM CDT
Nautical Twilight 6:15 AM CDT 8:01 PM CDT
Astronomical Twilight 5:40 AM CDT 8:37 PM CDT
Moon 2:40 PM CDT (10/3) 11:41 PM CDT (10/3)
Length of Visible Light 12h 35m
Length of Day
11h 35m
Waxing Crescent, 45% of the Moon is Illuminated
Oct 3
Waxing Crescent
Oct 3
First Quarter
Oct 11
Full
Oct 19
Last Quarter
Oct 26
New

Hourly Weather History & Observations

Time (CDT) Temp. Dew Point Humidity Pressure Visibility Wind Dir Wind Speed Gust Speed Precip Events Conditions
12:53 AM 52.0 °F 42.1 °F 69% 30.11 in 10.0 mi SSE 5.8 mph - N/A   Clear
2:53 AM 52.0 °F 43.0 °F 71% 30.10 in 10.0 mi SSE 4.6 mph - N/A   Clear
3:53 AM 50.0 °F 42.1 °F 74% 30.10 in 10.0 mi SSE 4.6 mph - N/A   Clear
4:53 AM 51.1 °F 42.1 °F 71% 30.11 in 10.0 mi SE 4.6 mph - N/A   Clear
5:53 AM 46.9 °F 41.0 °F 80% 30.12 in 10.0 mi SSE 5.8 mph - N/A   Clear
6:53 AM 48.9 °F 41.0 °F 74% 30.13 in 10.0 mi SE 4.6 mph - N/A   Clear
7:53 AM 48.9 °F 41.0 °F 74% 30.14 in 10.0 mi ESE 4.6 mph - N/A   Clear
8:53 AM 53.1 °F 42.1 °F 66% 30.15 in 10.0 mi SE 6.9 mph - N/A   Clear
9:53 AM 60.1 °F 42.1 °F 51% 30.14 in 10.0 mi South 9.2 mph - N/A   Clear
10:53 AM 66.9 °F 42.1 °F 40% 30.14 in 10.0 mi South 8.1 mph - N/A   Clear
11:53 AM 73.9 °F 42.1 °F 32% 30.14 in 10.0 mi South 10.4 mph - N/A   Clear
12:53 PM 78.8 °F 39.2 °F 24% 30.12 in 10.0 mi South 17.3 mph - N/A   Clear
1:53 PM 81.0 °F 39.9 °F 23% 30.10 in 10.0 mi South 13.8 mph - N/A   Clear
2:53 PM 80.6 °F 39.2 °F 23% 30.10 in 10.0 mi South 15.0 mph - N/A   Clear
3:53 PM 81.0 °F 39.9 °F 23% 30.09 in 10.0 mi South 12.7 mph - N/A   Clear
4:53 PM 79.0 °F 39.9 °F 25% 30.09 in 10.0 mi SSE 12.7 mph - N/A   Clear
5:53 PM 75.9 °F 39.9 °F 27% 30.09 in 10.0 mi South 11.5 mph - N/A   Clear
6:53 PM 72.0 °F 41.0 °F 33% 30.10 in 6.0 mi SSE 8.1 mph - N/A   Haze
7:53 PM 64.4 °F 41.0 °F 42% 30.09 in 10.0 mi SE 9.2 mph - N/A   Clear
8:53 PM 66.9 °F 41.0 °F 39% 30.11 in 10.0 mi SE 5.8 mph - N/A   Clear
9:53 PM 64.9 °F 41.0 °F 42% 30.11 in 10.0 mi SE 9.2 mph - N/A   Clear
10:53 PM 61.0 °F 41.0 °F 48% 30.11 in 10.0 mi SSE 5.8 mph - N/A   Clear
11:53 PM 60.1 °F 39.0 °F 46% 30.11 in 10.0 mi SSE 6.9 mph - N/A   Clear